| time (UTC) | temp C | wind direction | speed KPH | gust KPH | rain 1hr cm | rain 24hr cm | rain mn cm | humidity % | barometer mb |
| 20260905203422 | 27 | 13 | 1.6 | 3.2 | 0.00 | 0.76 | 0.76 | 65 | 1015.7 |
| 20260905202917 | 26 | 101 | 12.9 | 20.9 | 0.00 | 0.76 | 0.76 | 65 | 1015.7 |
| 20260905202413 | 27 | 335 | 0.0 | 4.8 | 0.00 | 0.76 | 0.76 | 64 | 1015.6 |
| 20260905201908 | 27 | 198 | 0.0 | 3.2 | 0.00 | 0.76 | 0.76 | 65 | 1015.8 |
| 20260905201403 | 28 | 149 | 3.2 | 3.2 | 0.00 | 0.76 | 0.76 | 66 | 1015.7 |
| 20260905200903 | 27 | 237 | 6.4 | 6.4 | 0.00 | 0.76 | 0.76 | 68 | 1015.7 |
| 20260905200359 | 27 | 225 | 0.0 | 3.2 | 0.00 | 0.76 | 0.76 | 66 | 1015.6 |
| 20260905195857 | 27 | 77 | 3.2 | 6.4 | 0.00 | 0.76 | 0.76 | 68 | 1015.7 |
| 20260905195352 | 27 | 50 | 3.2 | 4.8 | 0.00 | 0.76 | 0.76 | 68 | 1015.7 |
| 20260905194848 | 27 | 335 | 6.4 | 11.3 | 0.00 | 0.76 | 0.76 | 69 | 1015.9 |
| 20260905194347 | 28 | 191 | 0.0 | 6.4 | 0.00 | 0.76 | 0.76 | 66 | 1015.7 |
| 20260905193842 | 27 | 257 | 3.2 | 9.7 | 0.00 | 0.76 | 0.76 | 63 | 1015.7 |
| 20260905193337 | 27 | 191 | 4.8 | 6.4 | 0.00 | 0.76 | 0.76 | 61 | 1015.9 |
| 20260905192832 | 27 | 249 | 3.2 | 6.4 | 0.00 | 0.76 | 0.76 | 66 | 1015.7 |
| 20260905192328 | 28 | 95 | 3.2 | 3.2 | 0.00 | 0.76 | 0.76 | 68 | 1016.0 |
| 20260905191827 | 27 | 278 | 1.6 | 6.4 | 0.00 | 0.76 | 0.76 | 67 | 1016.0 |
| 20260905191326 | 27 | 220 | 3.2 | 4.8 | 0.00 | 0.76 | 0.76 | 65 | 1016.1 |
| 20260905190824 | 27 | 14 | 1.6 | 4.8 | 0.00 | 0.76 | 0.76 | 66 | 1016.3 |
| 20260905190319 | 26 | 354 | 6.4 | 11.3 | 0.00 | 0.76 | 0.76 | 67 | 1016.3 |
| 20260905185818 | 26 | 16 | 0.0 | 6.4 | 0.00 | 0.76 | 0.76 | 70 | 1016.1 |
| 20260905185313 | 26 | 9 | 3.2 | 6.4 | 0.00 | 0.76 | 0.76 | 72 | 1016.0 |
| 20260905184807 | 26 | 3 | 1.6 | 11.3 | 0.00 | 0.76 | 0.76 | 74 | 1016.3 |
| 20260905184306 | 26 | 25 | 1.6 | 3.2 | 0.00 | 0.76 | 0.76 | 75 | 1016.5 |
| 20260905183804 | 25 | 49 | 4.8 | 6.4 | 0.00 | 0.76 | 0.76 | 76 | 1016.7 |
| 20260905183300 | 25 | 59 | 4.8 | 9.7 | 0.00 | 0.76 | 0.76 | 76 | 1016.7 |
| 20260905182759 | 24 | 314 | 0.0 | 9.7 | 0.00 | 0.76 | 0.76 | 75 | 1017.0 |
| 20260905182259 | 25 | 38 | 6.4 | 6.4 | 0.00 | 0.76 | 0.76 | 78 | 1016.9 |
| 20260905181754 | 25 | 144 | 3.2 | 4.8 | 0.00 | 0.76 | 0.76 | 74 | 1017.0 |
| 20260905181248 | 25 | 240 | 11.3 | 12.9 | 0.00 | 0.76 | 0.76 | 72 | 1017.1 |
| 20260905180743 | 25 | 141 | 3.2 | 6.4 | 0.00 | 0.76 | 0.76 | 68 | 1017.2 |
| 20260905180238 | 26 | 297 | 3.2 | 4.8 | 0.00 | 0.76 | 0.76 | 70 | 1017.2 |
| 20260905175732 | 26 | 11 | 0.0 | 3.2 | 0.00 | 0.76 | 0.76 | 71 | 1017.1 |
| 20260905175227 | 26 | 330 | 1.6 | 11.3 | 0.00 | 0.76 | 0.76 | 69 | 1017.0 |
| 20260905174722 | 26 | 22 | 3.2 | 9.7 | 0.00 | 0.76 | 0.76 | 70 | 1016.9 |
| 20260905174218 | 26 | 16 | 1.6 | 6.4 | 0.00 | 0.76 | 0.76 | 71 | 1016.7 |
| 20260905173714 | 25 | 27 | 6.4 | 11.3 | 0.00 | 0.76 | 0.76 | 73 | 1016.8 |
| 20260905173209 | 25 | 67 | 24.1 | 25.7 | 0.00 | 0.76 | 0.76 | 74 | 1017.0 |
| 20260905172708 | 25 | 25 | 0.0 | 3.2 | 0.00 | 0.76 | 0.76 | 76 | 1016.8 |
| 20260905172202 | 25 | 2 | 1.6 | 3.2 | 0.00 | 0.76 | 0.76 | 78 | 1016.8 |
| 20260905171658 | 25 | 107 | 1.6 | 4.8 | 0.00 | 0.76 | 0.76 | 76 | 1016.8 |
| 20260905171154 | 24 | 130 | 0.0 | 0.0 | 0.00 | 0.76 | 0.76 | 80 | 1016.7 |
| 20260905170652 | 23 | 62 | 4.8 | 4.8 | 0.00 | 0.76 | 0.76 | 85 | 1017.0 |
| 20260905170146 | 23 | 52 | 3.2 | 4.8 | 0.00 | 0.76 | 0.76 | 89 | 1016.8 |
| 20260905165646 | 23 | 66 | 1.6 | 3.2 | 0.00 | 0.76 | 0.76 | 88 | 1016.9 |
| 20260905165141 | 23 | 23 | 1.6 | 6.4 | 0.00 | 0.76 | 0.76 | 84 | 1017.2 |
| 20260905164636 | 22 | 25 | 3.2 | 14.5 | 0.00 | 0.76 | 0.76 | 91 | 1017.1 |
| 20260905164135 | 22 | 297 | 1.6 | 1.6 | 0.00 | 0.76 | 0.76 | 92 | 1017.4 |
| 20260905163632 | 22 | 42 | 3.2 | 4.8 | 0.00 | 0.76 | 0.76 | 93 | 1017.3 |
| 20260905163128 | 22 | 21 | 0.0 | 1.6 | 0.00 | 0.76 | 0.76 | 93 | 1017.3 |
| 20260905162624 | 22 | 13 | 0.0 | 0.0 | 0.00 | 0.76 | 0.76 | 95 | 1017.2 |
| 20260905162123 | 21 | 14 | 0.0 | 0.0 | 0.00 | 0.76 | 0.76 | 96 | 1017.1 |
| 20260905161618 | 21 | 273 | 4.8 | 6.4 | 0.00 | 0.76 | 0.76 | 96 | 1017.4 |
| 20260905161116 | 21 | 271 | 3.2 | 4.8 | 0.00 | 0.76 | 0.76 | 96 | 1017.1 |
| 20260905160615 | 21 | 211 | 3.2 | 9.7 | 0.00 | 0.76 | 0.76 | 97 | 1017.1 |
| 20260905160114 | 21 | 223 | 3.2 | 3.2 | 0.00 | 0.76 | 0.76 | 99 | 1017.0 |
| 20260905155610 | 21 | 263 | 3.2 | 4.8 | 0.00 | 0.76 | 0.76 | 99 | 1017.0 |
| 20260905155108 | 21 | 233 | 3.2 | 4.8 | 0.00 | 0.76 | 0.76 | 99 | 1017.1 |
| 20260905154602 | 21 | 228 | 0.0 | 3.2 | 0.00 | 0.76 | 0.76 | 99 | 1017.2 |
| 20260905154058 | 20 | 275 | 0.0 | 1.6 | 0.00 | 0.76 | 0.76 | 98 | 1017.5 |
| 20260905153554 | 20 | 216 | 1.6 | 3.2 | 0.13 | 0.76 | 0.76 | 99 | 1017.8 |
| 20260905153054 | 20 | 259 | 1.6 | 3.2 | 0.13 | 0.76 | 0.76 | 99 | 1017.8 |
| 20260905152549 | 20 | 203 | 3.2 | 4.8 | 0.00 | 0.74 | 0.74 | 99 | 1018.1 |
| 20260905152044 | 20 | 256 | 1.6 | 4.8 | 0.00 | 0.74 | 0.74 | 99 | 1018.3 |
| 20260905151539 | 20 | 267 | 0.0 | 0.0 | 0.00 | 0.74 | 0.74 | 99 | 1018.5 |
| 20260905151035 | 20 | 139 | 1.6 | 3.2 | 0.00 | 0.74 | 0.74 | 99 | 1018.3 |
| 20260905150530 | 20 | 255 | 0.0 | 3.2 | 0.18 | 0.74 | 0.74 | 99 | 1018.7 |
| 20260905150027 | 20 | 282 | 0.0 | 3.2 | 0.18 | 0.74 | 0.74 | 99 | 1018.5 |
| 20260905145521 | 20 | 239 | 0.0 | 0.0 | 0.00 | 0.71 | 0.71 | 99 | 1018.6 |
| 20260905145020 | 19 | 177 | 0.0 | 0.0 | 0.18 | 0.71 | 0.71 | 99 | 1018.8 |
| 20260905144515 | 19 | 150 | 0.0 | 0.0 | 0.30 | 0.71 | 0.71 | 99 | 1018.9 |
| 20260905144014 | 20 | 197 | 0.0 | 0.0 | 0.30 | 0.69 | 0.69 | 99 | 1018.8 |
| 20260905143513 | 20 | 244 | 0.0 | 1.6 | 0.30 | 0.66 | 0.66 | 98 | 1019.1 |
| 20260905143009 | 20 | 78 | 4.8 | 6.4 | 0.30 | 0.64 | 0.64 | 93 | 1018.8 |
| 20260905142507 | 20 | 173 | 1.6 | 9.7 | 0.48 | 0.61 | 0.61 | 93 | 1018.9 |
| 20260905142003 | 20 | 217 | 0.0 | 11.3 | 0.43 | 0.58 | 0.58 | 94 | 1019.4 |
| 20260905141457 | 21 | 198 | 6.4 | 9.7 | 0.30 | 0.53 | 0.53 | 91 | 1019.5 |
| 20260905140954 | 21 | 138 | 6.4 | 11.3 | 0.48 | 0.51 | 0.51 | 90 | 1019.6 |
| 20260905140448 | 21 | 241 | 4.8 | 22.5 | 0.43 | 0.48 | 0.48 | 88 | 1019.7 |
| 20260905135947 | 21 | 221 | 8.0 | 11.3 | 0.48 | 0.43 | 0.43 | 90 | 1019.8 |
| 20260905135443 | 21 | 125 | 3.2 | 11.3 | 0.66 | 0.41 | 0.41 | 94 | 1019.7 |
| 20260905134938 | 21 | 199 | 6.4 | 14.5 | 0.43 | 0.36 | 0.36 | 94 | 1019.3 |
| 20260905134438 | 21 | 104 | 3.2 | 9.7 | 0.43 | 0.30 | 0.30 | 95 | 1019.2 |
| 20260905133937 | 21 | 255 | 0.0 | 4.8 | 0.48 | 0.28 | 0.28 | 97 | 1019.4 |
| 20260905133432 | 22 | 222 | 0.0 | 4.8 | 0.61 | 0.23 | 0.23 | 93 | 1019.1 |
| 20260905132931 | 22 | 206 | 9.7 | 20.9 | 1.07 | 0.20 | 0.20 | 91 | 1018.9 |
| 20260905132426 | 21 | 161 | 6.4 | 17.7 | 0.66 | 0.13 | 0.13 | 95 | 1018.7 |
| 20260905131921 | 21 | 188 | 3.2 | 4.8 | 0.00 | 0.03 | 0.03 | 99 | 1018.3 |
| 20260905131417 | 21 | 301 | 0.0 | 4.8 | 0.00 | 0.03 | 0.03 | 98 | 1018.0 |
| 20260905130912 | 21 | 176 | 0.0 | 1.6 | 0.00 | 0.03 | 0.03 | 99 | 1017.6 |
| 20260905130412 | 21 | 78 | 3.2 | 4.8 | 0.00 | 0.03 | 0.03 | 99 | 1017.3 |
| 20260905125906 | 21 | 65 | 0.0 | 0.0 | 0.00 | 0.03 | 0.03 | 99 | 1017.5 |
| 20260905125401 | 21 | 108 | 3.2 | 4.8 | 0.00 | 0.03 | 0.03 | 99 | 1017.2 |
| 20260905124857 | 21 | 321 | 3.2 | 3.2 | 0.00 | 0.03 | 0.03 | 98 | 1017.0 |
| 20260905124353 | 21 | 85 | 4.8 | 4.8 | 0.00 | 0.03 | 0.03 | 99 | 1016.9 |
| 20260905123853 | 21 | 312 | 0.0 | 1.6 | 0.00 | 0.03 | 0.03 | 99 | 1016.9 |
| 20260905123350 | 21 | 213 | 1.6 | 3.2 | 0.00 | 0.03 | 0.03 | 99 | 1016.8 |
| 20260905122850 | 21 | 57 | 1.6 | 9.7 | 0.00 | 0.03 | 0.03 | 99 | 1016.9 |
| 20260905122344 | 21 | 43 | 6.4 | 9.7 | 0.00 | 0.03 | 0.03 | 99 | 1016.9 |
| 20260905121839 | 20 | 7 | 0.0 | 0.0 | 0.00 | 0.03 | 0.03 | 99 | 1017.1 |
| 20260905121336 | 20 | 243 | 0.0 | 1.6 | 0.00 | 0.03 | 0.03 | 99 | 1017.0 |
| 20260905120834 | 20 | 71 | 0.0 | 0.0 | 0.00 | 0.03 | 0.03 | 99 | 1016.9 |
| 20260905120329 | 20 | 279 | 0.0 | 4.8 | 0.00 | 0.03 | 0.03 | 99 | 1017.0 |
| 20260905115824 | 20 | 48 | 0.0 | 0.0 | 0.00 | 0.03 | 0.03 | 99 | 1017.1 |
| 20260905115324 | 20 | 50 | 0.0 | 4.8 | 0.00 | 0.03 | 0.03 | 99 | 1017.0 |
| 20260905114823 | 20 | 306 | 1.6 | 1.6 | 0.00 | 0.03 | 0.03 | 99 | 1017.0 |
| 20260905114322 | 20 | 102 | 1.6 | 3.2 | 0.00 | 0.03 | 0.03 | 99 | 1017.0 |
| 20260905113821 | 19 | 310 | 0.0 | 0.0 | 0.00 | 0.03 | 0.03 | 99 | 1016.8 |
| 20260905113317 | 19 | 116 | 0.0 | 3.2 | 0.00 | 0.03 | 0.03 | 99 | 1016.8 |
| 20260905112813 | 19 | 151 | 0.0 | 0.0 | 0.13 | 0.03 | 0.03 | 99 | 1016.9 |
| 20260905112307 | 19 | 18 | 0.0 | 0.0 | 0.13 | 0.03 | 0.03 | 99 | 1017.0 |
| 20260905111802 | 19 | 302 | 0.0 | 0.0 | 0.00 | 0.00 | 0.00 | 99 | 1016.8 |
| 20260905111257 | 18 | 70 | 0.0 | 0.0 | 0.00 | 0.00 | 0.00 | 99 | 1016.7 |
| 20260905110756 | 18 | 28 | 0.0 | 0.0 | 0.00 | 0.00 | 0.00 | 99 | 1016.7 |
| 20260905110250 | 18 | 76 | 0.0 | 0.0 | 0.00 | 0.00 | 0.00 | 99 | 1016.7 |
| 20260905105746 | 18 | 72 | 0.0 | 0.0 | 0.00 | 0.00 | 0.00 | 99 | 1016.7 |
| 20260905105245 | 17 | 93 | 0.0 | 0.0 | 0.00 | 0.00 | 0.00 | 99 | 1016.7 |
| 20260905104739 | 18 | 326 | 0.0 | 0.0 | 0.00 | 0.00 | 0.00 | 99 | 1016.8 |
| 20260905104236 | 17 | 60 | 0.0 | 0.0 | 0.00 | 0.00 | 0.00 | 99 | 1016.7 |
| 20260905103730 | 17 | 245 | 0.0 | 0.0 | 0.00 | 0.00 | 0.00 | 99 | 1016.7 |
| 20260905103226 | 17 | 301 | 0.0 | 0.0 | 0.00 | 0.00 | 0.00 | 99 | 1017.0 |
| 20260905102721 | 17 | 88 | 0.0 | 0.0 | 0.00 | 0.00 | 0.00 | 99 | 1017.0 |
| 20260905102218 | 17 | 110 | 0.0 | 0.0 | 0.00 | 0.00 | 0.00 | 99 | 1017.2 |
| 20260905101717 | 17 | 92 | 0.0 | 0.0 | 0.00 | 0.00 | 0.00 | 99 | 1017.2 |
| 20260905101215 | 17 | 95 | 0.0 | 3.2 | 0.00 | 0.00 | 0.00 | 99 | 1017.3 |
| 20260905100712 | 17 | 264 | 0.0 | 0.0 | 0.00 | 0.00 | 0.00 | 99 | 1017.2 |
| 20260905100207 | 17 | 17 | 0.0 | 0.0 | 0.00 | 0.00 | 0.00 | 99 | 1017.1 |
| 20260905095706 | 17 | 333 | 0.0 | 0.0 | 0.00 | 0.00 | 0.00 | 99 | 1017.2 |
| 20260905095200 | 17 | 99 | 0.0 | 0.0 | 0.00 | 0.00 | 0.00 | 99 | 1017.2 |
| 20260905094655 | 17 | 132 | 0.0 | 0.0 | 0.00 | 0.00 | 0.00 | 99 | 1017.0 |
| 20260905094155 | 17 | 36 | 1.6 | 4.8 | 0.00 | 0.00 | 0.00 | 99 | 1016.7 |
| 20260905093655 | 17 | 354 | 0.0 | 0.0 | 0.00 | 0.00 | 0.00 | 99 | 1016.9 |
| 20260905093151 | 17 | 219 | 0.0 | 0.0 | 0.00 | 0.00 | 0.00 | 99 | 1016.9 |
| 20260905092646 | 17 | 294 | 0.0 | 0.0 | 0.00 | 0.00 | 0.00 | 99 | 1016.9 |
| 20260905092143 | 17 | 65 | 0.0 | 0.0 | 0.00 | 0.00 | 0.00 | 99 | 1016.8 |
| 20260905091641 | 17 | 82 | 0.0 | 0.0 | 0.00 | 0.00 | 0.00 | 99 | 1016.8 |
| 20260905091135 | 17 | 92 | 0.0 | 0.0 | 0.00 | 0.00 | 0.00 | 99 | 1016.5 |
| 20260905090630 | 17 | 228 | 0.0 | 0.0 | 0.00 | 0.00 | 0.00 | 99 | 1016.5 |
| 20260905090125 | 17 | 284 | 0.0 | 0.0 | 0.00 | 0.00 | 0.00 | 99 | 1016.7 |
| 20260905085624 | 17 | 305 | 0.0 | 0.0 | 0.00 | 0.00 | 0.00 | 99 | 1016.9 |
| 20260905085120 | 17 | 305 | 0.0 | 3.2 | 0.00 | 0.00 | 0.00 | 99 | 1017.0 |
| 20260905084619 | 17 | 314 | 1.6 | 3.2 | 0.00 | 0.00 | 0.00 | 99 | 1016.9 |
| 20260905084114 | 17 | 271 | 0.0 | 0.0 | 0.00 | 0.00 | 0.00 | 99 | 1017.0 |
| 20260905083608 | 17 | 235 | 0.0 | 0.0 | 0.00 | 0.00 | 0.00 | 99 | 1017.0 |
| 20260905083105 | 17 | 157 | 0.0 | 0.0 | 0.00 | 0.00 | 0.00 | 99 | 1016.9 |
| 20260905082600 | 17 | 267 | 0.0 | 4.8 | 0.00 | 0.00 | 0.00 | 99 | 1016.9 |
| 20260905082056 | 17 | 9 | 0.0 | 3.2 | 0.00 | 0.00 | 0.00 | 99 | 1016.9 |
| 20260905081555 | 17 | 283 | 0.0 | 0.0 | 0.00 | 0.00 | 0.00 | 99 | 1017.0 |
| 20260905081050 | 17 | 77 | 0.0 | 0.0 | 0.00 | 0.00 | 0.00 | 99 | 1017.2 |
| 20260905080550 | 17 | 53 | 0.0 | 0.0 | 0.00 | 0.00 | 0.00 | 99 | 1017.2 |
| 20260905080046 | 17 | 84 | 4.8 | 4.8 | 0.00 | 0.00 | 0.00 | 99 | 1016.9 |
| 20260905075544 | 17 | 124 | 0.0 | 0.0 | 0.00 | 0.00 | 0.00 | 99 | 1017.0 |
| 20260905075038 | 17 | 85 | 0.0 | 0.0 | 0.00 | 0.00 | 0.00 | 99 | 1017.1 |
| 20260905074532 | 17 | 72 | 0.0 | 0.0 | 0.00 | 0.00 | 0.00 | 99 | 1017.4 |
| 20260905074028 | 17 | 265 | 0.0 | 0.0 | 0.00 | 0.00 | 0.00 | 99 | 1017.3 |
| 20260905073523 | 17 | 55 | 1.6 | 3.2 | 0.00 | 0.00 | 0.00 | 99 | 1017.6 |
| 20260905073019 | 17 | 48 | 1.6 | 1.6 | 0.00 | 0.00 | 0.00 | 99 | 1017.5 |
| 20260905072518 | 18 | 330 | 0.0 | 1.6 | 0.00 | 0.00 | 0.00 | 99 | 1017.5 |
| 20260905072014 | 18 | 9 | 0.0 | 3.2 | 0.00 | 0.00 | 0.00 | 99 | 1017.7 |
| 20260905071511 | 18 | 67 | 3.2 | 4.8 | 0.00 | 0.00 | 0.00 | 99 | 1017.4 |
| 20260905071011 | 18 | 344 | 0.0 | 1.6 | 0.00 | 0.00 | 0.00 | 99 | 1017.6 |
| 20260905070506 | 18 | 330 | 0.0 | 0.0 | 0.00 | 0.00 | 0.00 | 99 | 1017.9 |
| 20260905070002 | 18 | 48 | 0.0 | 1.6 | 0.00 | 0.00 | 0.00 | 99 | 1018.1 |
| 20260905065459 | 18 | 354 | 0.0 | 3.2 | 0.00 | 0.00 | 0.00 | 99 | 1018.2 |
| 20260905064955 | 18 | 69 | 8.0 | 9.7 | 0.00 | 0.00 | 0.00 | 99 | 1018.0 |
| 20260905064449 | 18 | 51 | 0.0 | 0.0 | 0.00 | 0.00 | 0.00 | 99 | 1018.2 |
| 20260905063944 | 18 | 53 | 0.0 | 0.0 | 0.00 | 0.00 | 0.00 | 99 | 1018.1 |
| 20260905063433 | 18 | 313 | 0.0 | 0.0 | 0.00 | 0.00 | 0.00 | 99 | 1018.6 |
| 20260905062930 | 18 | 281 | 0.0 | 0.0 | 0.00 | 0.00 | 0.00 | 99 | 1018.3 |
| 20260905062429 | 18 | 109 | 0.0 | 0.0 | 0.00 | 0.00 | 0.00 | 99 | 1018.5 |
| 20260905061925 | 18 | 46 | 0.0 | 0.0 | 0.00 | 0.00 | 0.00 | 99 | 1018.7 |
| 20260905061424 | 18 | 42 | 1.6 | 4.8 | 0.00 | 0.00 | 0.00 | 99 | 1018.7 |
| 20260905060923 | 18 | 322 | 0.0 | 0.0 | 0.00 | 0.00 | 0.00 | 99 | 1018.6 |
| 20260905060420 | 17 | 53 | 3.2 | 4.8 | 0.00 | 0.00 | 0.00 | 99 | 1018.9 |
| 20260905055919 | 18 | 92 | 0.0 | 0.0 | 0.00 | 0.00 | 0.00 | 99 | 1018.9 |
| 20260905055415 | 18 | 107 | 0.0 | 0.0 | 0.00 | 0.00 | 0.00 | 99 | 1018.8 |
| 20260905054913 | 18 | 87 | 0.0 | 0.0 | 0.00 | 0.00 | 0.00 | 99 | 1019.2 |
| 20260905054411 | 17 | 42 | 0.0 | 0.0 | 0.00 | 0.00 | 0.00 | 99 | 1019.3 |
| 20260905053910 | 17 | 42 | 0.0 | 0.0 | 0.00 | 0.00 | 0.00 | 99 | 1019.3 |
| 20260905053405 | 17 | 72 | 0.0 | 0.0 | 0.00 | 0.00 | 0.00 | 99 | 1019.4 |
| 20260905052900 | 17 | 275 | 0.0 | 0.0 | 0.00 | 0.00 | 0.00 | 99 | 1019.6 |
| 20260905052359 | 17 | 335 | 0.0 | 0.0 | 0.00 | 0.00 | 0.00 | 99 | 1019.5 |
| 20260905051854 | 17 | 332 | 0.0 | 0.0 | 0.00 | 0.00 | 0.00 | 99 | 1019.6 |
| 20260905051350 | 17 | 58 | 0.0 | 0.0 | 0.00 | 0.00 | 0.00 | 99 | 1019.5 |
| 20260905050847 | 17 | 324 | 0.0 | 0.0 | 0.00 | 0.00 | 0.00 | 99 | 1019.7 |
| 20260905050343 | 17 | 74 | 0.0 | 0.0 | 0.00 | 0.00 | 0.00 | 99 | 1019.5 |
| 20260905045843 | 17 | 239 | 0.0 | 0.0 | 0.00 | 0.00 | 0.00 | 99 | 1019.9 |
| 20260905045338 | 18 | 239 | 0.0 | 0.0 | 0.00 | 0.00 | 0.00 | 99 | 1019.8 |
| 20260905044833 | 17 | 86 | 0.0 | 0.0 | 0.00 | 0.00 | 0.00 | 99 | 1020.1 |
| 20260905044328 | 17 | 263 | 0.0 | 0.0 | 0.00 | 0.00 | 0.00 | 99 | 1020.0 |
| 20260905043827 | 17 | 125 | 0.0 | 0.0 | 0.00 | 0.00 | 0.00 | 99 | 1020.3 |
| 20260905043321 | 17 | 125 | 0.0 | 0.0 | 0.00 | 0.00 | 0.00 | 99 | 1020.1 |
| 20260905042816 | 17 | 125 | 0.0 | 0.0 | 0.00 | 0.00 | 0.00 | 99 | 1019.9 |
| 20260905042310 | 18 | 180 | 0.0 | 0.0 | 0.00 | 0.00 | 0.00 | 99 | 1020.3 |
| 20260905041806 | 18 | 227 | 0.0 | 0.0 | 0.00 | 0.00 | 0.00 | 99 | 1020.3 |
| 20260905041302 | 18 | 88 | 0.0 | 0.0 | 0.00 | 0.00 | 0.00 | 99 | 1020.3 |
| 20260905040756 | 18 | 93 | 0.0 | 0.0 | 0.00 | 0.00 | 0.00 | 99 | 1020.4 |
| 20260905040255 | 18 | 91 | 0.0 | 0.0 | 0.00 | 0.71 | 0.71 | 99 | 1020.1 |
| 20260905035750 | 18 | 116 | 0.0 | 0.0 | 0.00 | 0.71 | 0.71 | 99 | 1020.4 |
| 20260905035246 | 18 | 118 | 0.0 | 0.0 | 0.00 | 0.71 | 0.71 | 99 | 1020.5 |
| 20260905034743 | 18 | 45 | 0.0 | 0.0 | 0.00 | 0.71 | 0.71 | 99 | 1020.4 |
| 20260905034243 | 18 | 45 | 0.0 | 0.0 | 0.00 | 0.71 | 0.71 | 99 | 1020.3 |
| 20260905033741 | 18 | 53 | 0.0 | 0.0 | 0.00 | 0.71 | 0.71 | 99 | 1020.3 |
| 20260905033237 | 18 | 9 | 0.0 | 0.0 | 0.00 | 0.71 | 0.71 | 99 | 1020.3 |
| 20260905032736 | 18 | 93 | 0.0 | 0.0 | 0.00 | 0.71 | 0.71 | 99 | 1020.1 |
| 20260905032232 | 18 | 35 | 0.0 | 0.0 | 0.00 | 0.71 | 0.71 | 99 | 1020.0 |
| 20260905031727 | 18 | 94 | 0.0 | 0.0 | 0.00 | 0.71 | 0.71 | 99 | 1020.1 |
| 20260905031223 | 18 | 244 | 0.0 | 0.0 | 0.00 | 0.71 | 0.71 | 99 | 1019.9 |
| 20260905030718 | 18 | 338 | 0.0 | 0.0 | 0.00 | 0.71 | 0.71 | 99 | 1019.8 |
| 20260905030213 | 18 | 336 | 0.0 | 0.0 | 0.00 | 0.71 | 0.71 | 99 | 1020.0 |
| 20260905025707 | 18 | 50 | 0.0 | 3.2 | 0.00 | 0.71 | 0.71 | 99 | 1019.8 |
| 20260905025203 | 18 | 39 | 0.0 | 0.0 | 0.00 | 0.71 | 0.71 | 99 | 1019.8 |
| 20260905024658 | 18 | 37 | 0.0 | 0.0 | 0.00 | 0.71 | 0.71 | 99 | 1019.7 |
| 20260905024154 | 18 | 48 | 0.0 | 1.6 | 0.00 | 0.71 | 0.71 | 99 | 1020.0 |
| 20260905023649 | 18 | 54 | 0.0 | 1.6 | 0.00 | 0.71 | 0.71 | 99 | 1019.8 |
| 20260905023148 | 18 | 18 | 0.0 | 1.6 | 0.00 | 0.71 | 0.71 | 99 | 1019.7 |
| 20260905022647 | 18 | 133 | 0.0 | 0.0 | 0.00 | 0.71 | 0.71 | 99 | 1019.6 |
| 20260905022143 | 18 | 181 | 0.0 | 1.6 | 0.00 | 0.71 | 0.71 | 99 | 1019.4 |
| 20260905021642 | 18 | 270 | 1.6 | 3.2 | 0.00 | 0.71 | 0.71 | 99 | 1019.4 |
| 20260905021138 | 18 | 243 | 0.0 | 3.2 | 0.00 | 0.71 | 0.71 | 99 | 1019.3 |
| 20260905020633 | 18 | 225 | 0.0 | 0.0 | 0.00 | 0.71 | 0.71 | 99 | 1019.2 |
| 20260905020128 | 18 | 217 | 0.0 | 1.6 | 0.00 | 0.71 | 0.71 | 99 | 1019.2 |
| 20260905015626 | 18 | 192 | 1.6 | 4.8 | 0.00 | 0.71 | 0.71 | 99 | 1019.2 |
| 20260905015121 | 18 | 182 | 1.6 | 1.6 | 0.00 | 0.71 | 0.71 | 99 | 1019.3 |
| 20260905014614 | 18 | 152 | 0.0 | 0.0 | 0.00 | 0.71 | 0.71 | 99 | 1019.4 |
| 20260905014111 | 18 | 213 | 0.0 | 0.0 | 0.00 | 0.71 | 0.71 | 99 | 1019.2 |
| 20260905013607 | 18 | 228 | 0.0 | 0.0 | 0.00 | 0.71 | 0.71 | 99 | 1019.1 |
| 20260905013103 | 18 | 239 | 0.0 | 0.0 | 0.00 | 0.71 | 0.71 | 99 | 1019.0 |
| 20260905012601 | 18 | 223 | 0.0 | 0.0 | 0.00 | 0.71 | 0.71 | 99 | 1019.1 |
| 20260905012059 | 18 | 38 | 0.0 | 0.0 | 0.00 | 0.71 | 0.71 | 99 | 1019.0 |
| 20260905011555 | 18 | 38 | 0.0 | 0.0 | 0.00 | 0.71 | 0.71 | 99 | 1019.0 |
| 20260905011050 | 18 | 38 | 0.0 | 0.0 | 0.00 | 0.71 | 0.71 | 99 | 1019.1 |
| 20260905010544 | 18 | 62 | 0.0 | 0.0 | 0.00 | 0.71 | 0.71 | 99 | 1019.1 |
| 20260905010041 | 18 | 49 | 0.0 | 0.0 | 0.00 | 0.71 | 0.71 | 99 | 1018.9 |
| 20260905005536 | 18 | 304 | 0.0 | 0.0 | 0.00 | 0.71 | 0.71 | 99 | 1018.9 |
| 20260905005032 | 18 | 273 | 0.0 | 0.0 | 0.00 | 0.71 | 0.71 | 99 | 1019.2 |
| 20260905004532 | 18 | 234 | 0.0 | 0.0 | 0.00 | 0.71 | 0.71 | 99 | 1019.0 |
| 20260905004027 | 18 | 176 | 0.0 | 0.0 | 0.00 | 0.71 | 0.71 | 99 | 1019.0 |
| 20260905003523 | 18 | 143 | 0.0 | 0.0 | 0.00 | 0.71 | 0.71 | 99 | 1019.2 |
| 20260905003018 | 19 | 98 | 0.0 | 0.0 | 0.00 | 0.71 | 0.71 | 99 | 1019.2 |
| 20260905002513 | 19 | 85 | 0.0 | 0.0 | 0.00 | 0.71 | 0.71 | 99 | 1019.1 |
| 20260905002008 | 19 | 155 | 0.0 | 0.0 | 0.00 | 0.71 | 0.71 | 99 | 1019.1 |
| 20260905001503 | 19 | 153 | 0.0 | 0.0 | 0.00 | 0.71 | 0.71 | 99 | 1019.2 |
| 20260905000957 | 19 | 155 | 0.0 | 0.0 | 0.00 | 0.71 | 0.71 | 99 | 1019.0 |
| 20260905000454 | 19 | 155 | 0.0 | 0.0 | 0.00 | 0.71 | 0.71 | 99 | 1019.1 |
| 20260904235948 | 19 | 155 | 0.0 | 0.0 | 0.00 | 0.71 | 0.71 | 99 | 1019.0 |
| 20260904235443 | 19 | 155 | 0.0 | 0.0 | 0.00 | 0.71 | 0.71 | 99 | 1019.0 |
| 20260904234937 | 19 | 137 | 0.0 | 0.0 | 0.00 | 0.71 | 0.71 | 99 | 1019.2 |
| 20260904234437 | 19 | 206 | 0.0 | 0.0 | 0.00 | 0.71 | 0.71 | 99 | 1019.0 |
| 20260904233934 | 19 | 223 | 0.0 | 0.0 | 0.00 | 0.71 | 0.71 | 99 | 1018.9 |
| 20260904233429 | 20 | 108 | 0.0 | 1.6 | 0.00 | 0.71 | 0.71 | 99 | 1018.9 |
| 20260904232925 | 20 | 46 | 0.0 | 0.0 | 0.00 | 0.71 | 0.71 | 99 | 1019.1 |
| 20260904232421 | 20 | 348 | 0.0 | 0.0 | 0.00 | 0.71 | 0.71 | 99 | 1019.1 |
| 20260904231918 | 20 | 35 | 0.0 | 1.6 | 0.00 | 0.71 | 0.71 | 99 | 1019.1 |
| 20260904231413 | 20 | 55 | 4.8 | 4.8 | 0.00 | 0.71 | 0.71 | 99 | 1019.1 |
| 20260904230908 | 20 | 58 | 0.0 | 0.0 | 0.00 | 0.71 | 0.71 | 99 | 1019.1 |
| 20260904230406 | 20 | 40 | 0.0 | 0.0 | 0.00 | 0.71 | 0.71 | 99 | 1019.0 |
| 20260904225901 | 20 | 8 | 0.0 | 0.0 | 0.00 | 0.71 | 0.71 | 99 | 1018.8 |
| 20260904225359 | 20 | 101 | 0.0 | 0.0 | 0.00 | 0.71 | 0.71 | 98 | 1018.7 |
| 20260904224859 | 20 | 83 | 1.6 | 3.2 | 0.00 | 0.71 | 0.71 | 98 | 1018.9 |
| 20260904224355 | 20 | 56 | 0.0 | 0.0 | 0.00 | 0.71 | 0.71 | 98 | 1018.9 |
| 20260904223849 | 20 | 104 | 0.0 | 0.0 | 0.00 | 0.71 | 0.71 | 98 | 1018.7 |
| 20260904223348 | 20 | 102 | 0.0 | 0.0 | 0.00 | 0.71 | 0.71 | 98 | 1018.8 |
| 20260904222844 | 20 | 215 | 1.6 | 1.6 | 0.00 | 0.71 | 0.71 | 99 | 1018.6 |
| 20260904222339 | 20 | 227 | 3.2 | 4.8 | 0.00 | 0.71 | 0.71 | 99 | 1018.7 |
| 20260904221839 | 20 | 221 | 3.2 | 4.8 | 0.00 | 0.71 | 0.71 | 98 | 1018.8 |
| 20260904221334 | 20 | 238 | 0.0 | 4.8 | 0.00 | 0.71 | 0.71 | 98 | 1018.9 |
| 20260904220829 | 20 | 174 | 3.2 | 3.2 | 0.00 | 0.71 | 0.71 | 97 | 1019.0 |
| 20260904220328 | 19 | 196 | 0.0 | 3.2 | 0.00 | 0.71 | 0.71 | 97 | 1019.0 |
| 20260904215824 | 19 | 20 | 0.0 | 0.0 | 0.00 | 0.71 | 0.71 | 98 | 1019.3 |
| 20260904215319 | 19 | 88 | 0.0 | 1.6 | 0.00 | 0.71 | 0.71 | 97 | 1019.8 |
| 20260904214815 | 20 | 62 | 3.2 | 4.8 | 0.00 | 0.71 | 0.71 | 97 | 1019.8 |
| 20260904214310 | 20 | 140 | 0.0 | 0.0 | 0.00 | 0.71 | 0.71 | 96 | 1019.7 |
| 20260904213808 | 20 | 238 | 0.0 | 0.0 | 0.00 | 0.71 | 0.71 | 96 | 1019.6 |
| 20260904213304 | 20 | 293 | 4.8 | 6.4 | 0.00 | 0.71 | 0.71 | 94 | 1019.7 |
| 20260904212759 | 20 | 257 | 3.2 | 3.2 | 0.30 | 0.71 | 0.71 | 94 | 1019.0 |
| 20260904212254 | 20 | 128 | 3.2 | 4.8 | 0.48 | 0.71 | 0.71 | 93 | 1019.7 |
| 20260904211749 | 20 | 222 | 3.2 | 4.8 | 0.18 | 0.66 | 0.66 | 94 | 1019.5 |
| 20260904211244 | 20 | 236 | 0.0 | 3.2 | 0.13 | 0.64 | 0.64 | 93 | 1019.8 |
| 20260904210739 | 21 | 243 | 4.8 | 6.4 | 0.13 | 0.64 | 0.64 | 91 | 1020.1 |
| 20260904210233 | 20 | 73 | 8.0 | 11.3 | 0.00 | 0.61 | 0.61 | 87 | 1019.8 |
| 20260904205730 | 20 | 117 | 3.2 | 4.8 | 0.00 | 0.61 | 0.61 | 91 | 1020.7 |
| 20260904205225 | 20 | 95 | 4.8 | 6.4 | 0.00 | 0.61 | 0.61 | 91 | 1020.6 |
| 20260904204722 | 20 | 102 | 6.4 | 11.3 | 0.00 | 0.61 | 0.61 | 85 | 1021.1 |
| 20260904204217 | 21 | 125 | 3.2 | 9.7 | 0.18 | 0.61 | 0.61 | 87 | 1021.5 |